Mount Low, Australia

5:33 PM AEST on January 21, 2018 (GMT +1000)
Mount Low

Weather History for 94294 - September, 2013

Change the Weather History Date:

Monday, September 2, 2013

  Actual Average Record
Temperature  
Mean Temperature 69 °F -  
Max Temperature 80 °F 82 °F - ()
Min Temperature 58 °F 64 °F - ()
Cooling Degree Days 4    
Growing Degree Days 19 (Base 50)    
Moisture  
Dew Point 61 °F    
Average Humidity 71    
Maximum Humidity 100    
Minimum Humidity 40    
Precipitation  
Precipitation 0.00 in 0.01 in - ()
Sea Level Pressure  
Sea Level Pressure 30.18 in    
Wind  
Wind Speed 8 mph ()    
Max Wind Speed 24 mph    
Max Gust Speed 31 mph    
Visibility 6.4 miles    
Events      
T = Trace of Precipitation, MM = Missing Value Source: Averaged Metar Reports

Daily Weather History Graph

Daily Weather History Graph

Search for Another Location

Airport or City:

Trip Planner

Search our weather history database for the weather conditions in past years. The results will help you decide how hot, cold, wet, or windy it might be!

Date:

Astronomy

Sep. 02, 2013 Rise Set
Actual Time 6:20 AM AEST 6:05 PM AEST
Civil Twilight 5:58 AM AEST 6:27 PM AEST
Nautical Twilight 5:32 AM AEST 6:52 PM AEST
Astronomical Twilight 5:07 AM AEST 7:18 PM AEST
Moon 3:43 AM AEST (9/2) 3:20 PM AEST (9/2)
Length of Visible Light 12h 28m
Length of Day
11h 44m
Waning Crescent, 11% of the Moon is Illuminated
Sep 2
Waning Crescent
Sep 5
New
Sep 13
First Quarter
Sep 19
Full
Sep 27
Last Quarter

Hourly Weather History & Observations

Time (AEST) Temp. Heat Index Dew Point Humidity Pressure Visibility Wind Dir Wind Speed Gust Speed Precip Events Conditions
12:00 AM 66 °F - 60 °F 76% 30.21 in - SE 1.2 mph - -  
12:00 AM 66.2 °F - 60.8 °F 83% 30.18 in 6.2 mi SE 1.2 mph - N/A   Unknown
12:30 AM 66.2 °F - 62.6 °F 88% 30.18 in 6.2 mi SE 5.8 mph - N/A   Unknown
1:00 AM 67 °F - 62 °F 78% 30.20 in - ESE 6.9 mph - -  
1:00 AM 68.0 °F - 62.6 °F 83% 30.18 in 6.2 mi ESE 6.9 mph - N/A   Unknown
1:30 AM 66.2 °F - 62.6 °F 88% 30.18 in 6.2 mi ESE 6.9 mph - N/A   Unknown
2:00 AM 62.6 °F - 59.0 °F 88% 30.15 in 6.2 mi ESE 5.8 mph - N/A   Unknown
2:28 AM 60.8 °F - 59.0 °F 94% 30.15 in 3.7 mi Calm Calm - N/A   Unknown
2:30 AM 60.8 °F - 59.0 °F 94% 30.15 in 3.7 mi Calm Calm - N/A   Unknown
3:00 AM 60 °F - 58 °F 91% 30.17 in 5 mi Calm Calm - -  
3:00 AM 60.8 °F - 59.0 °F 94% 30.15 in 5.0 mi Calm Calm - N/A   Unknown
3:02 AM 60.8 °F - 57.2 °F 88% 30.15 in 5.6 mi Calm Calm - N/A   Unknown
3:30 AM 64.4 °F - 60.8 °F 88% 30.15 in 6.2 mi SSW 5.8 mph - N/A   Unknown
4:00 AM 64 °F - 60 °F 84% 30.17 in - South 6.9 mph - -  
4:00 AM 64.4 °F - 60.8 °F 88% 30.15 in 6.2 mi South 6.9 mph - N/A   Scattered Clouds
4:30 AM 64.4 °F - 60.8 °F 88% 30.15 in 6.2 mi South 6.9 mph - N/A   Unknown
5:00 AM 60.8 °F - 59.0 °F 94% 30.15 in 5.6 mi South 2.3 mph - N/A   Scattered Clouds
5:13 AM 59.0 °F - 57.2 °F 94% 30.15 in 3.7 mi Calm Calm - N/A   Scattered Clouds
5:30 AM 59.0 °F - 57.2 °F 94% 30.18 in 3.7 mi Calm Calm - N/A   Scattered Clouds
6:00 AM 59.0 °F - 57.2 °F 94% 30.18 in 2.5 mi WSW 3.5 mph - N/A   Smoke
6:30 AM 59.0 °F - 57.2 °F 94% 30.18 in 2.5 mi SSW 2.3 mph - N/A   Smoke
7:00 AM 59.0 °F - 59.0 °F 100% 30.21 in 1.9 mi Calm Calm - N/A   Smoke
7:30 AM 64.4 °F - 60.8 °F 88% 30.21 in 3.1 mi Calm Calm - N/A   Smoke
8:00 AM 71.6 °F - 62.6 °F 73% 30.24 in 6.2 mi South 4.6 mph - N/A   Partly Cloudy
8:30 AM 73.4 °F - 62.6 °F 69% 30.24 in 6.2 mi SSE 6.9 mph - N/A   Partly Cloudy
9:00 AM 75 °F - 62 °F 54% 30.26 in 12 mi ESE 12.7 mph - -   Smoke
9:00 AM 75.2 °F - 60.8 °F 61% 30.24 in 6.2 mi ESE 12.7 mph - N/A   Scattered Clouds
9:30 AM 77.0 °F - 60.8 °F 57% 30.24 in 6.2 mi ESE 16.1 mph - N/A   Scattered Clouds
10:00 AM 78 °F - 60 °F 45% 30.27 in - SE 15.0 mph - -  
10:00 AM 77.0 °F - 60.8 °F 57% 30.24 in 6.2 mi SE 15.0 mph - N/A   Scattered Clouds
10:30 AM 78.8 °F - 60.8 °F 54% 30.24 in 6.2 mi East 13.8 mph - N/A   Scattered Clouds
11:00 AM 78.8 °F - 60.8 °F 54% 30.24 in 6.2 mi East 17.3 mph - N/A   Scattered Clouds
11:30 AM 78.8 °F - 60.8 °F 54% 30.24 in 6.2 mi East 19.6 mph - N/A   Scattered Clouds
12:00 PM 80 °F - 60 °F 40% 30.23 in 16 mi East 18.4 mph - -   Haze
12:00 PM 78.8 °F - 59.0 °F 51% 30.21 in 6.2 mi East 18.4 mph - N/A   Scattered Clouds
12:30 PM 80.6 °F 80.8 °F 57.2 °F 45% 30.21 in 6.2 mi East 21.9 mph - N/A   Scattered Clouds
12:49 PM 80.6 °F 81.1 °F 59.0 °F 48% 30.18 in 6.2 mi East 19.6 mph 31.1 mph N/A   Scattered Clouds
1:00 PM 80.6 °F 81.1 °F 59.0 °F 48% 30.18 in 6.2 mi East 19.6 mph - N/A   Partly Cloudy
1:30 PM 80.6 °F 81.1 °F 59.0 °F 48% 30.18 in 6.2 mi ENE 24.2 mph - N/A   Partly Cloudy
2:00 PM 80.6 °F 81.1 °F 59.0 °F 48% 30.15 in 6.2 mi East 21.9 mph - N/A   Partly Cloudy
2:30 PM 78.8 °F - 60.8 °F 54% 30.15 in 6.2 mi NE 19.6 mph - N/A   Partly Cloudy
3:00 PM 78 °F - 62 °F 48% 30.15 in 16 mi ENE 18.4 mph - -   Haze
3:00 PM 78.8 °F - 62.6 °F 57% 30.12 in 6.2 mi ENE 18.4 mph - N/A   Partly Cloudy
3:30 PM 78.8 °F - 62.6 °F 57% 30.15 in 6.2 mi ENE 16.1 mph - N/A   Partly Cloudy
4:00 PM 77.0 °F - 64.4 °F 65% 30.15 in 6.2 mi ENE 13.8 mph - N/A   Scattered Clouds
4:30 PM 77.0 °F - 62.6 °F 61% 30.15 in 6.2 mi ENE 12.7 mph - N/A   Partly Cloudy
5:00 PM 75.2 °F - 62.6 °F 65% 30.15 in 6.2 mi ENE 12.7 mph - N/A   Partly Cloudy
5:30 PM 75.2 °F - 62.6 °F 65% 30.15 in 6.2 mi ENE 16.1 mph - N/A   Partly Cloudy
6:00 PM 74 °F - 63 °F 61% 30.17 in 16 mi East 13.8 mph - -   Haze
6:00 PM 73.4 °F - 62.6 °F 69% 30.15 in 6.2 mi East 13.8 mph - N/A   Partly Cloudy
6:30 PM 73.4 °F - 62.6 °F 69% 30.15 in 6.2 mi East 12.7 mph - N/A   Partly Cloudy
7:00 PM 73 °F - 64 °F 66% 30.19 in - East 11.5 mph - -  
7:00 PM 73.4 °F - 64.4 °F 73% 30.15 in 6.2 mi East 11.5 mph - N/A   Partly Cloudy
7:30 PM 73.4 °F - 64.4 °F 73% 30.18 in 6.2 mi East 10.4 mph - N/A   Partly Cloudy
8:00 PM 73.4 °F - 64.4 °F 73% 30.18 in 6.2 mi East 15.0 mph - N/A   Scattered Clouds
8:30 PM 73.4 °F - 64.4 °F 73% 30.18 in 6.2 mi East 13.8 mph - N/A   Scattered Clouds
9:00 PM 72 °F - 63 °F 66% 30.20 in 12 mi ESE 12.7 mph - -   Haze
9:00 PM 73.4 °F - 62.6 °F 69% 30.18 in 6.2 mi ESE 12.7 mph - N/A   Partly Cloudy
9:30 PM 71.6 °F - 62.6 °F 73% 30.18 in 6.2 mi ESE 10.4 mph - N/A   Scattered Clouds
10:00 PM 72 °F - 63 °F 65% 30.22 in - ESE 11.5 mph - -  
10:00 PM 71.6 °F - 62.6 °F 73% 30.18 in 6.2 mi ESE 11.5 mph - N/A   Mostly Cloudy
10:30 PM 71.6 °F - 62.6 °F 73% 30.18 in 6.2 mi ESE 15.0 mph - N/A   Scattered Clouds
11:00 PM 71.6 °F - 62.6 °F 73% 30.18 in 6.2 mi ESE 15.0 mph - N/A   Scattered Clouds
11:30 PM 71.6 °F - 59.0 °F 64% 30.18 in 6.2 mi SE 12.7 mph - N/A   Unknown